TimeEST,TemperatureF,Dew PointF,Humidity,Sea Level PressureIn,VisibilityMPH,Wind Direction,Wind SpeedMPH,Gust SpeedMPH,PrecipitationIn,Events,Conditions,WindDirDegrees,DateUTC
12:15 AM,26.6,24.8,93,30.10,0.2,Calm,Calm,-,N/A,,Overcast,0,2011-11-25 05:15:00
12:55 AM,26.6,24.8,93,30.10,0.2,Calm,Calm,-,N/A,,Overcast,0,2011-11-25 05:55:00
1:15 AM,26.6,26.6,100,30.10,0.2,Calm,Calm,-,N/A,,Overcast,0,2011-11-25 06:15:00
1:55 AM,26.6,26.6,100,30.10,0.2,Calm,Calm,-,N/A,,Overcast,0,2011-11-25 06:55:00
2:15 AM,26.6,26.6,100,30.10,0.2,Calm,Calm,-,N/A,,Overcast,0,2011-11-25 07:15:00
2:35 AM,26.6,24.8,93,30.10,0.2,Calm,Calm,-,N/A,,Overcast,0,2011-11-25 07:35:00
3:15 AM,26.6,26.6,100,30.09,0.2,North,3.5,-,N/A,,Overcast,10,2011-11-25 08:15:00
3:35 AM,26.6,26.6,100,30.09,0.2,Calm,Calm,-,N/A,,Overcast,0,2011-11-25 08:35:00
3:55 AM,26.6,24.8,93,30.09,0.2,Calm,Calm,-,N/A,,Overcast,0,2011-11-25 08:55:00
4:35 AM,26.6,24.8,93,30.08,0.2,Calm,Calm,-,N/A,,Overcast,0,2011-11-25 09:35:00
5:15 AM,26.6,24.8,93,30.09,0.2,Calm,Calm,-,N/A,,Overcast,0,2011-11-25 10:15:00
5:35 AM,26.6,24.8,93,30.09,0.2,Calm,Calm,-,N/A,,Overcast,0,2011-11-25 10:35:00
5:55 AM,24.8,23.0,93,30.08,0.2,Calm,Calm,-,N/A,,Overcast,0,2011-11-25 10:55:00
6:15 AM,24.8,23.0,93,30.08,0.2,Calm,Calm,-,N/A,,Overcast,0,2011-11-25 11:15:00
6:35 AM,24.8,21.2,86,30.09,0.5,Calm,Calm,-,N/A,,Overcast,0,2011-11-25 11:35:00
6:55 AM,24.8,21.2,86,30.09,6.0,Calm,Calm,-,N/A,,Clear,0,2011-11-25 11:55:00
7:15 AM,24.8,23.0,93,30.09,7.0,Calm,Calm,-,N/A,,Clear,0,2011-11-25 12:15:00
7:35 AM,24.8,23.0,93,30.08,7.0,Calm,Calm,-,N/A,,Clear,0,2011-11-25 12:35:00
7:55 AM,24.8,23.0,93,30.09,5.0,Calm,Calm,-,N/A,,Clear,0,2011-11-25 12:55:00
8:55 AM,28.4,28.4,100,30.08,6.0,Calm,Calm,-,N/A,,Clear,0,2011-11-25 13:55:00
9:15 AM,30.2,28.4,93,30.08,7.0,Calm,Calm,-,N/A,,Clear,0,2011-11-25 14:15:00
9:35 AM,30.2,28.4,93,30.08,6.0,Calm,Calm,-,N/A,,Clear,0,2011-11-25 14:35:00
9:55 AM,33.8,32.0,93,30.09,9.0,Calm,Calm,-,N/A,,Clear,0,2011-11-25 14:55:00
10:15 AM,35.6,33.8,93,30.08,8.0,Calm,Calm,-,N/A,,Clear,0,2011-11-25 15:15:00
10:35 AM,37.4,33.8,87,30.07,10.0,Calm,Calm,-,N/A,,Clear,0,2011-11-25 15:35:00
11:15 AM,42.8,35.6,76,30.06,10.0,Calm,Calm,-,N/A,,Clear,0,2011-11-25 16:15:00
11:55 AM,46.4,35.6,66,30.05,10.0,Calm,Calm,-,N/A,,Clear,0,2011-11-25 16:55:00
12:35 PM,48.2,37.4,66,30.03,10.0,Calm,Calm,-,N/A,,Clear,0,2011-11-25 17:35:00
12:55 PM,51.8,37.4,58,30.03,10.0,Calm,Calm,-,N/A,,Clear,0,2011-11-25 17:55:00
1:15 PM,53.6,37.4,54,30.03,10.0,Calm,Calm,-,N/A,,Clear,0,2011-11-25 18:15:00
1:55 PM,53.6,39.2,58,30.01,10.0,Calm,Calm,-,N/A,,Clear,0,2011-11-25 18:55:00
2:35 PM,55.4,37.4,51,30.01,10.0,SSW,8.1,-,N/A,,Clear,200,2011-11-25 19:35:00
2:55 PM,53.6,37.4,54,30.01,10.0,South,8.1,-,N/A,,Clear,190,2011-11-25 19:55:00
3:15 PM,53.6,37.4,54,30.01,10.0,South,5.8,-,N/A,,Clear,190,2011-11-25 20:15:00
3:35 PM,53.6,37.4,54,30.01,10.0,South,9.2,-,N/A,,Clear,170,2011-11-25 20:35:00
3:55 PM,53.6,37.4,54,30.01,10.0,SSE,4.6,-,N/A,,Clear,150,2011-11-25 20:55:00
4:35 PM,46.4,37.4,71,30.01,10.0,Calm,Calm,-,N/A,,Clear,0,2011-11-25 21:35:00
4:55 PM,44.6,37.4,76,30.02,10.0,Calm,Calm,-,N/A,,Clear,0,2011-11-25 21:55:00
5:15 PM,42.8,37.4,81,30.03,10.0,Calm,Calm,-,N/A,,Clear,0,2011-11-25 22:15:00
5:35 PM,39.2,35.6,87,30.03,10.0,Calm,Calm,-,N/A,,Clear,0,2011-11-25 22:35:00
6:15 PM,37.4,35.6,93,30.03,10.0,Calm,Calm,-,N/A,,Clear,0,2011-11-25 23:15:00
6:35 PM,35.6,33.8,93,30.03,6.0,Calm,Calm,-,N/A,,Clear,0,2011-11-25 23:35:00
7:15 PM,35.6,33.8,93,30.03,0.5,Calm,Calm,-,N/A,,Unknown,0,2011-11-26 00:15:00
7:35 PM,35.6,33.8,93,30.03,2.5,Calm,Calm,-,N/A,,Clear,0,2011-11-26 00:35:00
7:55 PM,33.8,32.0,93,30.03,0.5,Calm,Calm,-,N/A,,Unknown,0,2011-11-26 00:55:00
8:35 PM,33.8,30.2,87,30.04,0.5,Calm,Calm,-,N/A,,Unknown,0,2011-11-26 01:35:00
9:15 PM,32.0,30.2,93,30.05,1.5,Calm,Calm,-,N/A,,Clear,0,2011-11-26 02:15:00
10:15 PM,30.2,28.4,93,30.05,0.5,Calm,Calm,-,N/A,,Unknown,0,2011-11-26 03:15:00
10:35 PM,30.2,28.4,93,30.04,0.8,Calm,Calm,-,N/A,,Unknown,0,2011-11-26 03:35:00
10:55 PM,28.4,28.4,100,30.05,0.5,Calm,Calm,-,N/A,,Unknown,0,2011-11-26 03:55:00
11:15 PM,30.2,28.4,93,30.04,3.0,Calm,Calm,-,N/A,,Clear,0,2011-11-26 04:15:00
11:35 PM,28.4,28.4,100,30.05,1.0,Calm,Calm,-,N/A,,Scattered Clouds,0,2011-11-26 04:35:00
11:55 PM,28.4,26.6,93,30.05,2.0,Calm,Calm,-,N/A,,Clear,0,2011-11-26 04:55:00